[Iaude] MPEC E30: 2024 EP [a=2.45,e=0.55,i=3.9,H=24.1]
    mpec at cfa.harvard.edu 
    mpec at cfa.harvard.edu
       
    Mon Mar  4 06:48:11 EST 2024
    
    
  
M.P.E.C. 2024-E30                                 Issued 2024 March 4, 11:46 UT
     The Minor Planet Electronic Circulars contain information on unusual
         minor planets, routine data on comets and natural satellites,
         and occasional editorial announcements.  They are published
    on behalf of Division F of the International Astronomical Union by the
          Minor Planet Center, Smithsonian Astrophysical Observatory,
                          Cambridge, MA 02138, U.S.A.
			  
             Prepared using the Tamkin Foundation Computer Network
                              MPC at CFA.HARVARD.EDU
            URL https://www.minorplanetcenter.net/    ISSN 1523-6714
                                    2024 EP                                     
Observations:
     K24E00P*1C2024 03 02.18682509 00 49.108+03 04 16.21         21.10GVEE030G96
     K24E00P 1C2024 03 02.19248209 00 49.885+03 04 16.97         21.27GVEE030G96
     K24E00P 1C2024 03 02.19813309 00 50.677+03 04 18.23         21.50GVEE030G96
     K24E00P  C2024 03 02.22333109 00 53.886+03 04 20.41         21.2 GVEE030H01
     K24E00P  C2024 03 02.22694409 00 54.378+03 04 20.85         21.1 GVEE030H01
     K24E00P  C2024 03 02.24198709 00 56.424+03 04 22.90         21.9 GVEE030H01
     K24E00P  C2024 03 02.24963509 00 57.489+03 04 24.24         21.7 GVEE030H01
     K24E00P  C2024 03 02.41488309 01 22.900+03 05 00.18         21.33wXEE030F51
     K24E00P  C2024 03 02.42695309 01 24.562+03 05 01.91         21.35wXEE030F51
     K24E00P  C2024 03 02.43895609 01 26.213+03 05 03.47         21.89wXEE030F51
     K24E00P  C2024 03 02.45100009 01 27.906+03 05 05.43         20.86wXEE030F51
     K24E00P |C2024 03 03.02065009 03 04.450+03 07 22.00         19.8 GVEE030807
     K24E00P |C2024 03 03.02615009 03 05.330+03 07 22.70         21.2 GVEE030807
     K24E00P |C2024 03 03.03165009 03 06.120+03 07 23.40         21.0 GVEE030807
     K24E00P  C2024 03 04.21557809 06 28.299+03 09 34.82         21.1 GVEE030H01
     K24E00P  C2024 03 04.22012109 06 28.999+03 09 35.65         20.9 GVEE030H01
     K24E00P  C2024 03 04.22941709 06 30.481+03 09 37.35         20.6 GVEE030H01
     K24E00P  C2024 03 04.23793009 06 31.819+03 09 38.71         21.1 GVEE030H01
Observer details:
807 Cerro Tololo Observatory, La Serena.  Observers T. Linder, R. Holmes.
    0.61-m f/6.8 Ritchey-Chretien + CCD.
F51 Pan-STARRS 1, Haleakala.  Observers J. Herman, T. Lowe, P. Minguez, A.
    Schultz, I. Smith.  Measurers K. Chambers, T. de Boer, J. Fairlamb, H.
    Gao, M. Huber, C.-C. Lin, E. Magnier, Y. Ramanjooloo, R. Wainscoat, R.
    Weryk.  1.8-m Ritchey-Chretien + CCD.
G96 Mt. Lemmon Survey.  Observer K. W. Wierzchos.  Measurers T. Beuden, V. F.
    Carvajal, D. Fay, J. B. Fazekas, D. C. Fuls, A. R. Gibbs, A. D. Grauer, H.
    Groeller, J. K. Hogan, R. A. Kowalski, S. M. Larson, G. J. Leonard, D.
    Rankin, R. L. Seaman, F. C. Shelly, K. W. Wierzchos.  1.5-m reflector +
    10K CCD.
H01 Magdalena Ridge Observatory, Socorro.  Observers W. H. Ryan, E. V. Ryan.
    Measurer W. H. Ryan.  2.4-m f/8.9 Ritchey-Chretien + CCD.
Orbital elements:
2024 EP                                                  Earth MOID = 0.0976 AU
Epoch 2024 Mar. 31.0 TT = JDT 2460400.5                 Veres                   
M   1.87735              (2000.0)            P               Q                  
n   0.25744807     Peri.  355.80655     -0.99975423     +0.02122330             
a   2.4472385      Node   185.42198     -0.01785246     -0.94207342             
e   0.5528914      Incl.    3.88786     -0.01314402     -0.33473459             
P   3.83           H   24.17          G   0.15           U   8                  
Residuals in seconds of arc
240302 G96  0.1-  0.2-    240302 H01  0.1+  0.2+    240303 807  0.3+  0.0
240302 G96  0.0   0.3-    240302 F51  0.1-  0.0     240303 807  0.0   0.2-
240302 G96  0.3+  0.2+    240302 F51  0.0   0.0     240304 H01  0.1+  0.1-
240302 H01  0.0   0.1+    240302 F51  0.1-  0.1-    240304 H01  0.2-  0.0
240302 H01  0.0   0.0     240302 F51  0.2+  0.2+    240304 H01  0.1+  0.1+
240302 H01  0.2-  0.1-    240303 807  0.6-  0.2+    240304 H01  0.0   0.0
Ephemeris:
2024 EP                  a,e,i = 2.45, 0.55, 4                   q = 1.0942
Date    TT    R. A. (2000) Decl.     Delta      r    Elong.  Phase     V
2024 02 03    08 32 13.1 +03 46 02   0.2671  1.2454   164.9    11.9    22.5
...
2024 02 18    08 38 47.3 +02 56 50   0.1964  1.1719   157.4    18.9    21.9
...
2024 02 26    08 49 25.5 +02 55 58   0.1664  1.1412   153.5    22.8    21.6
...
2024 03 03    09 02 58.8 +03 06 46   0.1469  1.1228   151.7    24.8    21.4
2024 03 04    09 05 49.6 +03 09 29   0.1439  1.1202   151.5    25.0    21.4
2024 03 05    09 08 51.8 +03 12 26   0.1410  1.1177   151.4    25.2    21.3
...
2024 03 11    09 31 29.9 +03 34 30   0.1252  1.1051   151.6    25.3    21.0
...
2024 03 19    10 15 18.7 +04 07 26   0.1095  1.0957   154.9    22.6    20.6
...
2024 04 03    12 10 24.7 +04 10 04   0.1042  1.1014   166.4    12.3    20.2
M. P. C. Staff               (C) Copyright 2024 MPC           M.P.E.C. 2024-E30
    
    
More information about the Iaude
mailing list